TimeCST,TemperatureF,Dew PointF,Humidity,Sea Level PressureIn,VisibilityMPH,Wind Direction,Wind SpeedMPH,Gust SpeedMPH,PrecipitationIn,Events,Conditions,WindDirDegrees,DateUTC
12:15 AM,32.2,25.9,78,30.37,10.0,West,3.5,-,N/A,,Mostly Cloudy,270,2013-01-04 06:15:00
12:35 AM,30.4,24.3,78,30.36,10.0,WSW,5.8,-,N/A,,Scattered Clouds,240,2013-01-04 06:35:00
12:55 AM,30.2,24.8,80,30.36,10.0,WSW,4.6,-,N/A,,Clear,240,2013-01-04 06:55:00
1:15 AM,30.2,24.8,80,30.36,10.0,SW,4.6,-,N/A,,Clear,230,2013-01-04 07:15:00
1:35 AM,26.4,21.9,83,30.37,10.0,WSW,5.8,-,N/A,,Clear,240,2013-01-04 07:35:00
1:55 AM,29.1,23.9,81,30.37,10.0,WSW,5.8,-,N/A,,Clear,250,2013-01-04 07:55:00
2:15 AM,27.3,22.8,83,30.37,10.0,SW,6.9,-,N/A,,Clear,230,2013-01-04 08:15:00
2:35 AM,26.6,23.0,86,30.37,10.0,SW,6.9,-,N/A,,Clear,230,2013-01-04 08:35:00
2:55 AM,27.5,23.5,85,30.37,10.0,WSW,5.8,-,N/A,,Clear,250,2013-01-04 08:55:00
3:15 AM,27.1,23.5,86,30.37,10.0,West,4.6,-,N/A,,Clear,260,2013-01-04 09:15:00
5:55 AM,23.7,23.7,100,30.39,4.0,West,3.5,-,N/A,,Scattered Clouds,270,2013-01-04 11:55:00
6:15 AM,23.0,23.0,100,30.40,3.0,WSW,3.5,-,N/A,,Mostly Cloudy,250,2013-01-04 12:15:00
6:35 AM,23.0,23.0,100,30.40,3.0,WSW,3.5,-,N/A,,Overcast,250,2013-01-04 12:35:00
6:55 AM,23.2,23.2,100,30.40,4.0,WSW,3.5,-,N/A,,Overcast,240,2013-01-04 12:55:00
7:15 AM,21.2,21.2,100,30.40,3.0,SW,3.5,-,N/A,,Mostly Cloudy,220,2013-01-04 13:15:00
7:35 AM,23.2,23.2,100,30.40,2.5,SW,3.5,-,N/A,,Mostly Cloudy,230,2013-01-04 13:35:00
7:55 AM,22.6,22.6,100,30.41,2.5,SW,4.6,-,N/A,,Scattered Clouds,230,2013-01-04 13:55:00
8:15 AM,22.6,22.6,100,30.41,3.0,SW,5.8,-,N/A,,Clear,230,2013-01-04 14:15:00
8:35 AM,23.4,23.4,100,30.42,3.0,WSW,5.8,-,N/A,,Scattered Clouds,240,2013-01-04 14:35:00
8:55 AM,26.6,25.3,95,30.43,5.0,WSW,5.8,-,N/A,,Overcast,250,2013-01-04 14:55:00
9:15 AM,27.9,25.3,90,30.43,5.0,WSW,9.2,-,N/A,,Overcast,250,2013-01-04 15:15:00
9:35 AM,28.8,24.6,84,30.44,7.0,West,6.9,-,N/A,,Overcast,260,2013-01-04 15:35:00
9:55 AM,29.3,24.1,81,30.45,7.0,West,8.1,-,N/A,,Overcast,260,2013-01-04 15:55:00
10:15 AM,29.3,24.1,81,30.45,7.0,WSW,6.9,-,N/A,,Mostly Cloudy,250,2013-01-04 16:15:00
10:35 AM,30.2,24.6,80,30.44,7.0,WSW,8.1,-,N/A,,Scattered Clouds,240,2013-01-04 16:35:00
10:55 AM,30.9,24.4,77,30.43,10.0,WSW,10.4,-,N/A,,Clear,250,2013-01-04 16:55:00
11:15 AM,31.6,24.8,76,30.42,10.0,WSW,9.2,-,N/A,,Clear,250,2013-01-04 17:15:00
11:35 AM,32.0,25.0,75,30.41,10.0,WSW,5.8,-,N/A,,Clear,250,2013-01-04 17:35:00
11:55 AM,32.2,24.8,74,30.41,10.0,West,5.8,-,N/A,,Clear,260,2013-01-04 17:55:00
12:15 PM,32.5,25.2,74,30.40,10.0,West,4.6,-,N/A,,Clear,260,2013-01-04 18:15:00
12:35 PM,33.8,24.8,70,30.39,10.0,West,5.8,-,N/A,,Clear,280,2013-01-04 18:35:00
12:55 PM,33.4,25.3,72,30.38,10.0,WSW,8.1,-,N/A,,Clear,240,2013-01-04 18:55:00
1:15 PM,34.0,25.9,72,30.37,10.0,WSW,6.9,-,N/A,,Clear,250,2013-01-04 19:15:00
1:35 PM,34.7,25.9,70,30.37,10.0,WSW,6.9,-,N/A,,Clear,250,2013-01-04 19:35:00
1:55 PM,35.2,25.5,68,30.38,10.0,WSW,10.4,-,N/A,,Clear,250,2013-01-04 19:55:00
2:15 PM,35.4,25.3,67,30.38,10.0,WSW,11.5,-,N/A,,Clear,250,2013-01-04 20:15:00
2:35 PM,35.2,25.7,68,30.37,10.0,WSW,10.4,-,N/A,,Clear,250,2013-01-04 20:35:00
2:55 PM,35.2,25.9,69,30.37,10.0,SW,9.2,-,N/A,,Clear,230,2013-01-04 20:55:00
3:15 PM,35.2,26.1,69,30.37,10.0,SW,10.4,-,N/A,,Clear,220,2013-01-04 21:15:00
3:35 PM,35.1,26.1,70,30.37,10.0,SW,10.4,-,N/A,,Clear,220,2013-01-04 21:35:00
3:55 PM,35.4,25.9,68,30.37,10.0,SW,9.2,-,N/A,,Clear,220,2013-01-04 21:55:00
4:15 PM,34.7,26.1,71,30.37,10.0,SW,10.4,-,N/A,,Clear,220,2013-01-04 22:15:00
4:35 PM,33.8,26.1,73,30.36,10.0,SSW,8.1,-,N/A,,Clear,210,2013-01-04 22:35:00
4:55 PM,32.2,25.5,76,30.36,10.0,SSW,6.9,-,N/A,,Clear,200,2013-01-04 22:55:00
5:15 PM,32.5,25.7,76,30.36,10.0,South,4.6,-,N/A,,Clear,180,2013-01-04 23:15:00
5:35 PM,32.0,25.2,76,30.36,10.0,South,4.6,-,N/A,,Clear,190,2013-01-04 23:35:00
5:55 PM,32.0,25.7,78,30.36,10.0,SSE,3.5,-,N/A,,Clear,160,2013-01-04 23:55:00
6:15 PM,31.6,25.2,77,30.35,10.0,Calm,Calm,-,N/A,,Clear,0,2013-01-05 00:15:00
6:35 PM,30.2,24.8,80,30.35,10.0,SSE,3.5,-,N/A,,Clear,150,2013-01-05 00:35:00
6:55 PM,28.4,23.7,83,30.35,10.0,Calm,Calm,-,N/A,,Clear,0,2013-01-05 00:55:00
7:15 PM,27.1,23.7,87,30.35,10.0,Calm,Calm,-,N/A,,Clear,0,2013-01-05 01:15:00
7:35 PM,26.8,24.3,90,30.36,10.0,South,4.6,-,N/A,,Clear,190,2013-01-05 01:35:00
7:55 PM,27.1,23.4,86,30.36,10.0,South,5.8,-,N/A,,Clear,180,2013-01-05 01:55:00
8:15 PM,29.1,24.8,84,30.36,10.0,South,4.6,-,N/A,,Clear,190,2013-01-05 02:15:00
8:35 PM,29.5,24.8,83,30.35,10.0,South,5.8,-,N/A,,Clear,190,2013-01-05 02:35:00
8:55 PM,28.9,24.3,83,30.35,10.0,South,4.6,-,N/A,,Clear,190,2013-01-05 02:55:00
9:15 PM,30.0,25.2,82,30.35,10.0,South,6.9,-,N/A,,Clear,190,2013-01-05 03:15:00
9:35 PM,29.3,24.4,82,30.34,10.0,South,6.9,-,N/A,,Clear,180,2013-01-05 03:35:00
9:55 PM,29.8,24.8,81,30.35,10.0,South,5.8,-,N/A,,Clear,180,2013-01-05 03:55:00
10:15 PM,28.8,24.1,83,30.35,10.0,South,4.6,-,N/A,,Clear,180,2013-01-05 04:15:00
10:35 PM,28.4,23.9,83,30.34,10.0,South,4.6,-,N/A,,Clear,180,2013-01-05 04:35:00
10:55 PM,29.3,24.6,83,30.35,10.0,South,6.9,-,N/A,,Clear,190,2013-01-05 04:55:00
11:15 PM,29.7,24.8,82,30.34,10.0,South,6.9,-,N/A,,Clear,190,2013-01-05 05:15:00
11:35 PM,29.3,24.6,83,30.34,10.0,South,5.8,-,N/A,,Clear,190,2013-01-05 05:35:00
11:55 PM,29.7,25.2,83,30.33,10.0,South,5.8,-,N/A,,Clear,190,2013-01-05 05:55:00